Year,Month,Day,Hour,Minute,Value (Times are PST for temperature in C)
2017,06,23,00,00,14.10
2017,06,23,00,01,14.10
2017,06,23,00,02,14.10
2017,06,23,00,03,14.00
2017,06,23,00,04,14.00
2017,06,23,00,05,14.00
2017,06,23,00,06,13.90
2017,06,23,00,07,13.90
2017,06,23,00,08,13.90
2017,06,23,00,09,13.90
2017,06,23,00,10,13.80
2017,06,23,00,11,13.80
2017,06,23,00,12,13.80
2017,06,23,00,13,13.70
2017,06,23,00,14,13.70
2017,06,23,00,15,13.70
2017,06,23,00,16,13.70
2017,06,23,00,17,13.70
2017,06,23,00,18,13.70
2017,06,23,00,19,13.70
2017,06,23,00,20,13.70
2017,06,23,00,21,13.70
2017,06,23,00,22,13.70
2017,06,23,00,23,13.70
2017,06,23,00,24,13.70
2017,06,23,00,25,13.70
2017,06,23,00,26,13.70
2017,06,23,00,27,13.70
2017,06,23,00,28,13.60
2017,06,23,00,29,13.60
2017,06,23,00,30,13.60
2017,06,23,00,31,13.60
2017,06,23,00,32,13.60
2017,06,23,00,33,13.60
2017,06,23,00,34,13.60
2017,06,23,00,35,13.50
2017,06,23,00,36,13.50
2017,06,23,00,37,13.50
2017,06,23,00,38,13.50
2017,06,23,00,39,13.40
2017,06,23,00,40,13.40
2017,06,23,00,41,13.40
2017,06,23,00,42,13.30
2017,06,23,00,43,13.30
2017,06,23,00,44,13.30
2017,06,23,00,45,13.30
2017,06,23,00,46,13.30
2017,06,23,00,47,13.20
2017,06,23,00,48,13.20
2017,06,23,00,49,13.20
2017,06,23,00,50,13.10
2017,06,23,00,51,13.10
2017,06,23,00,52,13.10
2017,06,23,00,53,13.00
2017,06,23,00,54,13.00
2017,06,23,00,55,13.00
2017,06,23,00,56,13.00
2017,06,23,00,57,12.90
2017,06,23,00,58,12.90
2017,06,23,00,59,12.90
2017,06,23,01,00,12.90
2017,06,23,01,01,12.80
2017,06,23,01,02,12.80
2017,06,23,01,03,12.80
2017,06,23,01,04,12.80
2017,06,23,01,05,12.80
2017,06,23,01,06,12.80
2017,06,23,01,07,12.70
2017,06,23,01,08,12.70
2017,06,23,01,09,12.70
2017,06,23,01,10,12.60
2017,06,23,01,11,12.60
2017,06,23,01,12,12.60
2017,06,23,01,13,12.50
2017,06,23,01,14,12.50
2017,06,23,01,15,12.50
2017,06,23,01,16,12.50
2017,06,23,01,17,12.40
2017,06,23,01,18,12.40
2017,06,23,01,19,12.40
2017,06,23,01,20,12.30
2017,06,23,01,21,12.30
2017,06,23,01,22,12.30
2017,06,23,01,23,12.30
2017,06,23,01,24,12.30
2017,06,23,01,25,12.30
2017,06,23,01,26,12.30
2017,06,23,01,27,12.30
2017,06,23,01,28,12.20
2017,06,23,01,29,12.20
2017,06,23,01,30,12.20
2017,06,23,01,31,12.20
2017,06,23,01,32,12.10
2017,06,23,01,33,12.10
2017,06,23,01,34,12.10
2017,06,23,01,35,12.00
2017,06,23,01,36,12.00
2017,06,23,01,37,12.00
2017,06,23,01,38,12.00
2017,06,23,01,39,12.00
2017,06,23,01,40,12.00
2017,06,23,01,41,12.00
2017,06,23,01,42,12.00
2017,06,23,01,43,12.00
2017,06,23,01,44,12.00
2017,06,23,01,45,12.00
2017,06,23,01,46,11.90
2017,06,23,01,47,11.90
2017,06,23,01,48,11.90
2017,06,23,01,49,11.90
2017,06,23,01,50,11.90
2017,06,23,01,51,11.80
2017,06,23,01,52,11.80
2017,06,23,01,53,11.80
2017,06,23,01,54,11.80
2017,06,23,01,55,11.80
2017,06,23,01,56,11.80
2017,06,23,01,57,11.80
2017,06,23,01,58,11.80
2017,06,23,01,59,11.70
2017,06,23,02,00,11.70
2017,06,23,02,01,11.70
2017,06,23,02,02,11.70
2017,06,23,02,03,11.70
2017,06,23,02,04,11.70
2017,06,23,02,05,11.70
2017,06,23,02,06,11.60
2017,06,23,02,07,11.60
2017,06,23,02,08,11.70
2017,06,23,02,09,11.70
2017,06,23,02,10,11.70
2017,06,23,02,11,11.70
2017,06,23,02,12,11.70
2017,06,23,02,13,11.70
2017,06,23,02,14,11.70
2017,06,23,02,15,11.70
2017,06,23,02,16,11.70
2017,06,23,02,17,11.70
2017,06,23,02,18,11.70
2017,06,23,02,19,11.70
2017,06,23,02,20,11.70
2017,06,23,02,21,11.70
2017,06,23,02,22,11.70
2017,06,23,02,23,11.70
2017,06,23,02,24,11.70
2017,06,23,02,25,11.70
2017,06,23,02,26,11.60
2017,06,23,02,27,11.60
2017,06,23,02,28,11.60
2017,06,23,02,29,11.60
2017,06,23,02,30,11.60
2017,06,23,02,31,11.60
2017,06,23,02,32,11.60
2017,06,23,02,33,11.60
2017,06,23,02,34,11.60
2017,06,23,02,35,11.60
2017,06,23,02,36,11.60
2017,06,23,02,37,11.60
2017,06,23,02,38,11.60
2017,06,23,02,39,11.60
2017,06,23,02,40,11.60
2017,06,23,02,41,11.50
2017,06,23,02,42,11.40
2017,06,23,02,43,11.40
2017,06,23,02,44,11.40
2017,06,23,02,45,11.40
2017,06,23,02,46,11.40
2017,06,23,02,47,11.40
2017,06,23,02,48,11.40
2017,06,23,02,49,11.40
2017,06,23,02,50,11.30
2017,06,23,02,51,11.30
2017,06,23,02,52,11.30
2017,06,23,02,53,11.30
2017,06,23,02,54,11.30
2017,06,23,02,55,11.30
2017,06,23,02,56,11.30
2017,06,23,02,57,11.20
2017,06,23,02,58,11.20
2017,06,23,02,59,11.20
2017,06,23,03,00,11.20
2017,06,23,03,01,11.20
2017,06,23,03,02,11.20
2017,06,23,03,03,11.20
2017,06,23,03,04,11.20
2017,06,23,03,05,11.20
2017,06,23,03,06,11.20
2017,06,23,03,07,11.20
2017,06,23,03,08,11.20
2017,06,23,03,09,11.20
2017,06,23,03,10,11.20
2017,06,23,03,11,11.20
2017,06,23,03,12,11.10
2017,06,23,03,13,11.10
2017,06,23,03,14,11.10
2017,06,23,03,15,11.10
2017,06,23,03,16,11.10
2017,06,23,03,17,11.10
2017,06,23,03,18,11.10
2017,06,23,03,19,11.10
2017,06,23,03,20,11.10
2017,06,23,03,21,11.10
2017,06,23,03,22,11.10
2017,06,23,03,23,11.10
2017,06,23,03,24,11.00
2017,06,23,03,25,10.90
2017,06,23,03,26,10.90
2017,06,23,03,27,10.90
2017,06,23,03,28,10.90
2017,06,23,03,29,10.90
2017,06,23,03,30,10.90
2017,06,23,03,31,10.90
2017,06,23,03,32,10.90
2017,06,23,03,33,10.90
2017,06,23,03,34,10.90
2017,06,23,03,35,10.90
2017,06,23,03,36,10.90
2017,06,23,03,37,10.90
2017,06,23,03,38,10.90
2017,06,23,03,39,10.90
2017,06,23,03,40,10.90
2017,06,23,03,41,10.90
2017,06,23,03,42,10.80
2017,06,23,03,43,10.80
2017,06,23,03,44,10.80
2017,06,23,03,45,10.80
2017,06,23,03,46,10.80
2017,06,23,03,47,10.80
2017,06,23,03,48,10.70
2017,06,23,03,49,10.70
2017,06,23,03,50,10.70
2017,06,23,03,51,10.70
2017,06,23,03,52,10.70
2017,06,23,03,53,10.70
2017,06,23,03,54,10.60
2017,06,23,03,55,10.60
2017,06,23,03,56,10.60
2017,06,23,03,57,10.60
2017,06,23,03,58,10.60
2017,06,23,03,59,10.60
2017,06,23,04,00,10.60
2017,06,23,04,01,10.60
2017,06,23,04,02,10.60
2017,06,23,04,03,10.60
2017,06,23,04,04,10.60
2017,06,23,04,05,10.60
2017,06,23,04,06,10.60
2017,06,23,04,07,10.60
2017,06,23,04,08,10.60
2017,06,23,04,09,10.40
2017,06,23,04,10,10.40
2017,06,23,04,11,10.40
2017,06,23,04,12,10.40
2017,06,23,04,13,10.40
2017,06,23,04,14,10.40
2017,06,23,04,15,10.40
2017,06,23,04,16,10.40
2017,06,23,04,17,10.40
2017,06,23,04,18,10.40
2017,06,23,04,19,10.40
2017,06,23,04,20,10.40
2017,06,23,04,21,10.40
2017,06,23,04,22,10.40
2017,06,23,04,23,10.40
2017,06,23,04,24,10.40
2017,06,23,04,25,10.40
2017,06,23,04,26,10.40
2017,06,23,04,27,10.30
2017,06,23,04,28,10.30
2017,06,23,04,29,10.30
2017,06,23,04,30,10.30
2017,06,23,04,31,10.30
2017,06,23,04,32,10.30
2017,06,23,04,33,10.30
2017,06,23,04,34,10.30
2017,06,23,04,35,10.30
2017,06,23,04,36,10.30
2017,06,23,04,37,10.20
2017,06,23,04,38,10.20
2017,06,23,04,39,10.20
2017,06,23,04,40,10.20
2017,06,23,04,41,10.20
2017,06,23,04,42,10.20
2017,06,23,04,43,10.10
2017,06,23,04,44,10.10
2017,06,23,04,45,10.10
2017,06,23,04,46,10.10
2017,06,23,04,47,10.10
2017,06,23,04,48,10.10
2017,06,23,04,49,10.10
2017,06,23,04,50,10.10
2017,06,23,04,51,10.10
2017,06,23,04,52,10.10
2017,06,23,04,53,10.10
2017,06,23,04,54,10.10
2017,06,23,04,55,10.10
2017,06,23,04,56,10.10
2017,06,23,04,57,10.10
2017,06,23,04,58,10.10
2017,06,23,04,59,10.10
2017,06,23,05,00,10.10
2017,06,23,05,01,10.10
2017,06,23,05,02,10.10
2017,06,23,05,03,10.10
2017,06,23,05,04,10.10
2017,06,23,05,05,10.10
2017,06,23,05,06,10.10
2017,06,23,05,07,10.10
2017,06,23,05,08,9.90
2017,06,23,05,09,9.90
2017,06,23,05,10,9.90
2017,06,23,05,11,9.90
2017,06,23,05,12,9.90
2017,06,23,05,13,9.90
2017,06,23,05,14,9.90
2017,06,23,05,15,9.90
2017,06,23,05,16,9.90
2017,06,23,05,17,9.90
2017,06,23,05,18,9.90
2017,06,23,05,19,9.90
2017,06,23,05,20,9.90
2017,06,23,05,21,9.90
2017,06,23,05,22,9.90
2017,06,23,05,23,9.90
2017,06,23,05,24,9.90
2017,06,23,05,25,9.90
2017,06,23,05,26,9.90
2017,06,23,05,27,9.90
2017,06,23,05,28,9.90
2017,06,23,05,29,9.90
2017,06,23,05,30,9.90
2017,06,23,05,31,9.90
2017,06,23,05,32,9.90
2017,06,23,05,33,9.90
2017,06,23,05,34,9.90
2017,06,23,05,35,9.90
2017,06,23,05,36,9.90
2017,06,23,05,37,9.90
2017,06,23,05,38,9.90
2017,06,23,05,39,9.90
2017,06,23,05,40,9.90
2017,06,23,05,41,9.90
2017,06,23,05,42,9.90
2017,06,23,05,43,9.90
2017,06,23,05,44,9.90
2017,06,23,05,45,9.90
2017,06,23,05,46,9.90
2017,06,23,05,47,9.90
2017,06,23,05,48,9.90
2017,06,23,05,49,9.90
2017,06,23,05,50,9.90
2017,06,23,05,51,9.90
2017,06,23,05,52,9.90
2017,06,23,05,53,10.10
2017,06,23,05,54,10.10
2017,06,23,05,55,10.10
2017,06,23,05,56,10.10
2017,06,23,05,57,10.10
2017,06,23,05,58,10.10
2017,06,23,05,59,10.10
2017,06,23,06,00,10.20
2017,06,23,06,01,10.20
2017,06,23,06,02,10.30
2017,06,23,06,03,10.30
2017,06,23,06,04,10.30
2017,06,23,06,05,10.40
2017,06,23,06,06,10.40
2017,06,23,06,07,10.50
2017,06,23,06,08,10.60
2017,06,23,06,09,10.60
2017,06,23,06,10,10.70
2017,06,23,06,11,10.80
2017,06,23,06,12,10.80
2017,06,23,06,13,10.90
2017,06,23,06,14,11.00
2017,06,23,06,15,11.10
2017,06,23,06,16,11.10
2017,06,23,06,17,11.20
2017,06,23,06,18,11.30
2017,06,23,06,19,11.40
2017,06,23,06,20,11.60
2017,06,23,06,21,11.70
2017,06,23,06,22,11.80
2017,06,23,06,23,11.80
2017,06,23,06,24,11.90
2017,06,23,06,25,12.00
2017,06,23,06,26,12.10
2017,06,23,06,27,12.20
2017,06,23,06,28,12.20
2017,06,23,06,29,12.30
2017,06,23,06,30,12.30
2017,06,23,06,31,12.30
2017,06,23,06,32,12.30
2017,06,23,06,33,12.40
2017,06,23,06,34,12.50
2017,06,23,06,35,12.50
2017,06,23,06,36,12.60
2017,06,23,06,37,12.60
2017,06,23,06,38,12.70
2017,06,23,06,39,12.80
2017,06,23,06,40,12.90
2017,06,23,06,41,13.00
2017,06,23,06,42,13.00
2017,06,23,06,43,13.10
2017,06,23,06,44,13.20
2017,06,23,06,45,13.30
2017,06,23,06,46,13.50
2017,06,23,06,47,13.50
2017,06,23,06,48,13.60
2017,06,23,06,49,13.70
2017,06,23,06,50,13.70
2017,06,23,06,51,13.80
2017,06,23,06,52,13.90
2017,06,23,06,53,13.90
2017,06,23,06,54,14.00
2017,06,23,06,55,14.00
2017,06,23,06,56,14.00
2017,06,23,06,57,14.00
2017,06,23,06,58,14.10
2017,06,23,06,59,14.10
2017,06,23,07,00,14.20
2017,06,23,07,01,14.30
2017,06,23,07,02,14.40
2017,06,23,07,03,14.50
2017,06,23,07,04,14.60
2017,06,23,07,05,14.60
2017,06,23,07,06,14.70
2017,06,23,07,07,14.70
2017,06,23,07,08,14.80
2017,06,23,07,09,14.90
2017,06,23,07,10,15.00
2017,06,23,07,11,15.10
2017,06,23,07,12,15.20
2017,06,23,07,13,15.20
2017,06,23,07,14,15.30
2017,06,23,07,15,15.30
2017,06,23,07,16,15.40
2017,06,23,07,17,15.50
2017,06,23,07,18,15.60
2017,06,23,07,19,15.60
2017,06,23,07,20,15.70
2017,06,23,07,21,15.70
2017,06,23,07,22,15.80
2017,06,23,07,23,16.00
2017,06,23,07,24,16.10
2017,06,23,07,25,16.30
2017,06,23,07,26,16.40
2017,06,23,07,27,16.50
2017,06,23,07,28,16.60
2017,06,23,07,29,16.80
2017,06,23,07,30,16.90
2017,06,23,07,31,17.00
2017,06,23,07,32,17.10
2017,06,23,07,33,17.20
2017,06,23,07,34,17.20
2017,06,23,07,35,17.10
2017,06,23,07,36,17.10
2017,06,23,07,37,17.00
2017,06,23,07,38,17.00
2017,06,23,07,39,16.90
2017,06,23,07,40,16.90
2017,06,23,07,41,16.80
2017,06,23,07,42,16.80
2017,06,23,07,43,16.80
2017,06,23,07,44,16.80
2017,06,23,07,45,16.70
2017,06,23,07,46,16.70
2017,06,23,07,47,16.70
2017,06,23,07,48,16.50
2017,06,23,07,49,16.40
2017,06,23,07,50,16.30
2017,06,23,07,51,16.30
2017,06,23,07,52,16.30
2017,06,23,07,53,16.30
2017,06,23,07,54,16.30
2017,06,23,07,55,16.30
2017,06,23,07,56,16.30
2017,06,23,07,57,16.20
2017,06,23,07,58,16.20
2017,06,23,07,59,16.20
2017,06,23,08,00,16.30
2017,06,23,08,01,16.30
2017,06,23,08,02,16.40
2017,06,23,08,03,16.40
2017,06,23,08,04,16.40
2017,06,23,08,05,16.50
2017,06,23,08,06,16.60
2017,06,23,08,07,16.70
2017,06,23,08,08,16.70
2017,06,23,08,09,16.70
2017,06,23,08,10,16.70
2017,06,23,08,11,16.70
2017,06,23,08,12,16.80
2017,06,23,08,13,16.80
2017,06,23,08,14,16.80
2017,06,23,08,15,16.90
2017,06,23,08,16,16.90
2017,06,23,08,17,16.90
2017,06,23,08,18,17.00
2017,06,23,08,19,17.00
2017,06,23,08,20,17.00
2017,06,23,08,21,17.00
2017,06,23,08,22,17.00
2017,06,23,08,23,17.00
2017,06,23,08,24,16.90
2017,06,23,08,25,17.00
2017,06,23,08,26,17.00
2017,06,23,08,27,17.00
2017,06,23,08,28,17.00
2017,06,23,08,29,17.00
2017,06,23,08,30,17.00
2017,06,23,08,31,17.00
2017,06,23,08,32,17.10
2017,06,23,08,33,17.10
2017,06,23,08,34,17.20
2017,06,23,08,35,17.30
2017,06,23,08,36,17.30
2017,06,23,08,37,17.40
2017,06,23,08,38,17.50
2017,06,23,08,39,17.60
2017,06,23,08,40,17.70
2017,06,23,08,41,17.80
2017,06,23,08,42,17.90
2017,06,23,08,43,18.00
2017,06,23,08,44,18.10
2017,06,23,08,45,18.20
2017,06,23,08,46,18.30
2017,06,23,08,47,18.40
2017,06,23,08,48,18.50
2017,06,23,08,49,18.50
2017,06,23,08,50,18.60
2017,06,23,08,51,18.60
2017,06,23,08,52,18.60
2017,06,23,08,53,18.60
2017,06,23,08,54,18.60
2017,06,23,08,55,18.60
2017,06,23,08,56,18.60
2017,06,23,08,57,18.60
2017,06,23,08,58,18.70
2017,06,23,08,59,18.70
2017,06,23,09,00,18.80
2017,06,23,09,01,18.80
2017,06,23,09,02,18.80
2017,06,23,09,03,18.90
2017,06,23,09,04,18.90
2017,06,23,09,05,18.90
2017,06,23,09,06,18.90
2017,06,23,09,07,19.10
2017,06,23,09,08,19.10
2017,06,23,09,09,19.10
2017,06,23,09,10,19.00
2017,06,23,09,11,18.90
2017,06,23,09,12,18.90
2017,06,23,09,13,18.90
2017,06,23,09,14,18.90
2017,06,23,09,15,18.90
2017,06,23,09,16,18.90
2017,06,23,09,17,18.90
2017,06,23,09,18,18.90
2017,06,23,09,19,18.90
2017,06,23,09,20,19.00
2017,06,23,09,21,19.00
2017,06,23,09,22,18.90
2017,06,23,09,23,18.90
2017,06,23,09,24,18.90
2017,06,23,09,25,18.90
2017,06,23,09,26,19.00
2017,06,23,09,27,19.10
2017,06,23,09,28,19.10
2017,06,23,09,29,19.30
2017,06,23,09,30,19.30
2017,06,23,09,31,19.40
2017,06,23,09,32,19.40
2017,06,23,09,33,19.50
2017,06,23,09,34,19.60
2017,06,23,09,35,19.60
2017,06,23,09,36,19.80
2017,06,23,09,37,19.80
2017,06,23,09,38,19.90
2017,06,23,09,39,19.90
2017,06,23,09,40,20.00
2017,06,23,09,41,20.10
2017,06,23,09,42,20.20
2017,06,23,09,43,20.20
2017,06,23,09,44,20.20
2017,06,23,09,45,20.20
2017,06,23,09,46,20.20
2017,06,23,09,47,20.20
2017,06,23,09,48,20.20
2017,06,23,09,49,20.20
2017,06,23,09,50,20.20
2017,06,23,09,51,20.20
2017,06,23,09,52,20.20
2017,06,23,09,53,20.20
2017,06,23,09,54,20.20
2017,06,23,09,55,20.20
2017,06,23,09,56,20.20
2017,06,23,09,57,20.20
2017,06,23,09,58,20.20
2017,06,23,09,59,20.30
2017,06,23,10,00,20.20
2017,06,23,10,01,20.20
2017,06,23,10,02,20.20
2017,06,23,10,03,20.30
2017,06,23,10,04,20.30
2017,06,23,10,05,20.40
2017,06,23,10,06,20.50
2017,06,23,10,07,20.40
2017,06,23,10,08,20.40
2017,06,23,10,09,20.40
2017,06,23,10,10,20.30
2017,06,23,10,11,20.10
2017,06,23,10,12,19.90
2017,06,23,10,13,19.60
2017,06,23,10,14,19.60
2017,06,23,10,15,19.50
2017,06,23,10,16,19.50
2017,06,23,10,17,19.40
2017,06,23,10,18,19.40
2017,06,23,10,19,19.40
2017,06,23,10,20,19.50
2017,06,23,10,21,19.70
2017,06,23,10,22,19.90
2017,06,23,10,23,19.90
2017,06,23,10,24,20.00
2017,06,23,10,25,20.10
2017,06,23,10,26,20.00
2017,06,23,10,27,20.10
2017,06,23,10,28,20.20
2017,06,23,10,29,20.20
2017,06,23,10,30,20.40
2017,06,23,10,31,20.50
2017,06,23,10,32,20.60
2017,06,23,10,33,20.70
2017,06,23,10,34,20.80
2017,06,23,10,35,21.00
2017,06,23,10,36,21.00
2017,06,23,10,37,21.10
2017,06,23,10,38,21.20
2017,06,23,10,39,21.30
2017,06,23,10,40,21.40
2017,06,23,10,41,21.40
2017,06,23,10,42,21.30
2017,06,23,10,43,21.30
2017,06,23,10,44,21.30
2017,06,23,10,45,21.30
2017,06,23,10,46,21.40
2017,06,23,10,47,21.50
2017,06,23,10,48,21.60
2017,06,23,10,49,21.60
2017,06,23,10,50,21.60
2017,06,23,10,51,21.60
2017,06,23,10,52,21.50
2017,06,23,10,53,21.40
2017,06,23,10,54,21.30
2017,06,23,10,55,21.40
2017,06,23,10,56,21.50
2017,06,23,10,57,21.60
2017,06,23,10,58,21.70
2017,06,23,10,59,21.80
2017,06,23,11,00,22.00
2017,06,23,11,01,22.20
2017,06,23,11,02,22.20
2017,06,23,11,03,22.10
2017,06,23,11,04,22.10
2017,06,23,11,05,22.20
2017,06,23,11,06,22.30
2017,06,23,11,07,22.30
2017,06,23,11,08,22.20
2017,06,23,11,09,22.20
2017,06,23,11,10,22.10
2017,06,23,11,11,22.10
2017,06,23,11,12,22.10
2017,06,23,11,13,22.10
2017,06,23,11,14,22.10
2017,06,23,11,15,22.10
2017,06,23,11,16,22.20
2017,06,23,11,17,22.20
2017,06,23,11,18,22.30
2017,06,23,11,19,22.40
2017,06,23,11,20,22.40
2017,06,23,11,21,22.40
2017,06,23,11,22,22.50
2017,06,23,11,23,22.60
2017,06,23,11,24,22.60
2017,06,23,11,25,22.70
2017,06,23,11,26,22.80
2017,06,23,11,27,22.90
2017,06,23,11,28,22.90
2017,06,23,11,29,22.90
2017,06,23,11,30,23.10
2017,06,23,11,31,23.20
2017,06,23,11,32,23.10
2017,06,23,11,33,23.10
2017,06,23,11,34,23.10
2017,06,23,11,35,22.90
2017,06,23,11,36,22.50
2017,06,23,11,37,22.20
2017,06,23,11,38,22.00
2017,06,23,11,39,21.90
2017,06,23,11,40,21.80
2017,06,23,11,41,21.80
2017,06,23,11,42,21.80
2017,06,23,11,43,21.80
2017,06,23,11,44,21.70
2017,06,23,11,45,21.80
2017,06,23,11,46,21.90
2017,06,23,11,47,22.00
2017,06,23,11,48,22.10
2017,06,23,11,49,22.10
2017,06,23,11,50,22.20
2017,06,23,11,51,22.20
2017,06,23,11,52,22.10
2017,06,23,11,53,22.10
2017,06,23,11,54,22.00
2017,06,23,11,55,22.00
2017,06,23,11,56,22.00
2017,06,23,11,57,22.00
2017,06,23,11,58,22.20
2017,06,23,11,59,22.20
2017,06,23,12,00,22.30
2017,06,23,12,01,22.40
2017,06,23,12,02,22.40
2017,06,23,12,03,22.50
2017,06,23,12,04,22.50
2017,06,23,12,05,22.40
2017,06,23,12,06,22.20
2017,06,23,12,07,22.10
2017,06,23,12,08,22.10
2017,06,23,12,09,22.10
2017,06,23,12,10,22.00
2017,06,23,12,11,22.00
2017,06,23,12,12,21.90
2017,06,23,12,13,21.80
2017,06,23,12,14,21.80
2017,06,23,12,15,21.90
2017,06,23,12,16,21.80
2017,06,23,12,17,21.80
2017,06,23,12,18,21.70
2017,06,23,12,19,21.70
2017,06,23,12,20,21.80
2017,06,23,12,21,21.90
2017,06,23,12,22,21.90
2017,06,23,12,23,21.70
2017,06,23,12,24,21.60
2017,06,23,12,25,21.50
2017,06,23,12,26,21.40
2017,06,23,12,27,21.40
2017,06,23,12,28,21.50
2017,06,23,12,29,21.60
2017,06,23,12,30,21.80
2017,06,23,12,31,22.00
2017,06,23,12,32,22.00
2017,06,23,12,33,22.20
2017,06,23,12,34,22.30
2017,06,23,12,35,22.40
2017,06,23,12,36,22.60
2017,06,23,12,37,22.70
2017,06,23,12,38,22.60
2017,06,23,12,39,22.60
2017,06,23,12,40,22.50
2017,06,23,12,41,22.50
2017,06,23,12,42,22.60
2017,06,23,12,43,22.70
2017,06,23,12,44,22.80
2017,06,23,12,45,22.80
2017,06,23,12,46,22.70
2017,06,23,12,47,22.70
2017,06,23,12,48,22.60
2017,06,23,12,49,22.50
2017,06,23,12,50,22.50
2017,06,23,12,51,22.40
2017,06,23,12,52,22.30
2017,06,23,12,53,22.20
2017,06,23,12,54,22.20
2017,06,23,12,55,22.20
2017,06,23,12,56,22.20
2017,06,23,12,57,22.20
2017,06,23,12,58,22.30
2017,06,23,12,59,22.30
2017,06,23,13,00,22.30
2017,06,23,13,01,22.40
2017,06,23,13,02,22.50
2017,06,23,13,03,22.60
2017,06,23,13,04,22.70
2017,06,23,13,05,22.60
2017,06,23,13,06,22.40
2017,06,23,13,07,22.30
2017,06,23,13,08,22.40
2017,06,23,13,09,22.50
2017,06,23,13,10,22.60
2017,06,23,13,11,22.70
2017,06,23,13,12,22.70
2017,06,23,13,13,22.70
2017,06,23,13,14,22.60
2017,06,23,13,15,22.60
2017,06,23,13,16,22.50
2017,06,23,13,17,22.50
2017,06,23,13,18,22.60
2017,06,23,13,19,22.70
2017,06,23,13,20,22.60
2017,06,23,13,21,22.60
2017,06,23,13,22,22.60
2017,06,23,13,23,22.60
2017,06,23,13,24,22.70
2017,06,23,13,25,22.70
2017,06,23,13,26,22.80
2017,06,23,13,27,22.90
2017,06,23,13,28,23.10
2017,06,23,13,29,23.20
2017,06,23,13,30,23.30
2017,06,23,13,31,23.30
2017,06,23,13,32,23.10
2017,06,23,13,33,23.10
2017,06,23,13,34,23.10
2017,06,23,13,35,23.00
2017,06,23,13,36,22.90
2017,06,23,13,37,22.80
2017,06,23,13,38,22.80
2017,06,23,13,39,22.70
2017,06,23,13,40,22.70
2017,06,23,13,41,22.70
2017,06,23,13,42,22.60
2017,06,23,13,43,22.50
2017,06,23,13,44,22.50
2017,06,23,13,45,22.60
2017,06,23,13,46,22.70
2017,06,23,13,47,22.90
2017,06,23,13,48,22.80
2017,06,23,13,49,22.70
2017,06,23,13,50,22.70
2017,06,23,13,51,22.80
2017,06,23,13,52,22.90
2017,06,23,13,53,23.10
2017,06,23,13,54,23.10
2017,06,23,13,55,23.20
2017,06,23,13,56,23.30
2017,06,23,13,57,23.30
2017,06,23,13,58,23.30
2017,06,23,13,59,23.30
2017,06,23,14,00,23.30
2017,06,23,14,01,23.40
2017,06,23,14,02,23.40
2017,06,23,14,03,23.40
2017,06,23,14,04,23.30
2017,06,23,14,05,23.30
2017,06,23,14,06,23.40
2017,06,23,14,07,23.50
2017,06,23,14,08,23.40
2017,06,23,14,09,23.40
2017,06,23,14,10,23.50
2017,06,23,14,11,23.60
2017,06,23,14,12,23.70
2017,06,23,14,13,23.70
2017,06,23,14,14,23.80
2017,06,23,14,15,23.90
2017,06,23,14,16,24.00
2017,06,23,14,17,24.10
2017,06,23,14,18,24.10
2017,06,23,14,19,24.10
2017,06,23,14,20,24.20
2017,06,23,14,21,24.20
2017,06,23,14,22,24.10
2017,06,23,14,23,24.10
2017,06,23,14,24,24.10
2017,06,23,14,25,24.10
2017,06,23,14,26,24.10
2017,06,23,14,27,24.10
2017,06,23,14,28,24.20
2017,06,23,14,29,24.20
2017,06,23,14,30,24.10
2017,06,23,14,31,23.90
2017,06,23,14,32,23.80
2017,06,23,14,33,23.70
2017,06,23,14,34,23.70
2017,06,23,14,35,23.80
2017,06,23,14,36,23.80
2017,06,23,14,37,23.90
2017,06,23,14,38,24.00
2017,06,23,14,39,24.10
2017,06,23,14,40,24.20
2017,06,23,14,41,24.30
2017,06,23,14,42,24.40
2017,06,23,14,43,24.30
2017,06,23,14,44,24.30
2017,06,23,14,45,24.30
2017,06,23,14,46,24.20
2017,06,23,14,47,24.20
2017,06,23,14,48,24.20
2017,06,23,14,49,24.10
2017,06,23,14,50,24.00
2017,06,23,14,51,23.90
2017,06,23,14,52,23.80
2017,06,23,14,53,23.80
2017,06,23,14,54,23.80
2017,06,23,14,55,23.70
2017,06,23,14,56,23.60
2017,06,23,14,57,23.60
2017,06,23,14,58,23.70
2017,06,23,14,59,23.50
2017,06,23,15,00,23.40
2017,06,23,15,01,23.20
2017,06,23,15,02,23.00
2017,06,23,15,03,22.70
2017,06,23,15,04,22.50
2017,06,23,15,05,22.30
2017,06,23,15,06,22.00
2017,06,23,15,07,22.00
2017,06,23,15,08,21.90
2017,06,23,15,09,21.80
2017,06,23,15,10,21.70
2017,06,23,15,11,21.80
2017,06,23,15,12,21.90
2017,06,23,15,13,22.00
2017,06,23,15,14,22.10
2017,06,23,15,15,22.20
2017,06,23,15,16,22.30
2017,06,23,15,17,22.30
2017,06,23,15,18,22.20
2017,06,23,15,19,22.10
2017,06,23,15,20,22.00
2017,06,23,15,21,22.10
2017,06,23,15,22,22.20
2017,06,23,15,23,22.30
2017,06,23,15,24,22.50
2017,06,23,15,25,22.60
2017,06,23,15,26,22.70
2017,06,23,15,27,22.80
2017,06,23,15,28,22.80
2017,06,23,15,29,22.90
2017,06,23,15,30,22.80
2017,06,23,15,31,22.70
2017,06,23,15,32,22.70
2017,06,23,15,33,22.70
2017,06,23,15,34,22.80
2017,06,23,15,35,22.90
2017,06,23,15,36,22.90
2017,06,23,15,37,22.80
2017,06,23,15,38,22.80
2017,06,23,15,39,22.80
2017,06,23,15,40,22.80
2017,06,23,15,41,22.80
2017,06,23,15,42,22.90
2017,06,23,15,43,23.00
2017,06,23,15,44,23.10
2017,06,23,15,45,23.20
2017,06,23,15,46,23.30
2017,06,23,15,47,23.40
2017,06,23,15,48,23.60
2017,06,23,15,49,23.70
2017,06,23,15,50,23.80
2017,06,23,15,51,23.70
2017,06,23,15,52,23.80
2017,06,23,15,53,23.80
2017,06,23,15,54,23.90
2017,06,23,15,55,24.00
2017,06,23,15,56,24.10
2017,06,23,15,57,24.10
2017,06,23,15,58,24.10
2017,06,23,15,59,24.10
2017,06,23,16,00,24.10
2017,06,23,16,01,24.10
2017,06,23,16,02,23.90
2017,06,23,16,03,23.90
2017,06,23,16,04,23.80
2017,06,23,16,05,23.80
2017,06,23,16,06,23.70
2017,06,23,16,07,23.70
2017,06,23,16,08,23.60
2017,06,23,16,09,23.50
2017,06,23,16,10,23.50
2017,06,23,16,11,23.60
2017,06,23,16,12,23.70
2017,06,23,16,13,23.70
2017,06,23,16,14,23.80
2017,06,23,16,15,23.80
2017,06,23,16,16,23.90
2017,06,23,16,17,23.90
2017,06,23,16,18,23.90
2017,06,23,16,19,24.00
2017,06,23,16,20,24.10
2017,06,23,16,21,24.10
2017,06,23,16,22,24.10
2017,06,23,16,23,24.20
2017,06,23,16,24,24.30
2017,06,23,16,25,24.30
2017,06,23,16,26,24.20
2017,06,23,16,27,23.90
2017,06,23,16,28,23.80
2017,06,23,16,29,23.70
2017,06,23,16,30,23.70
2017,06,23,16,31,23.70
2017,06,23,16,32,23.70
2017,06,23,16,33,23.60
2017,06,23,16,34,23.60
2017,06,23,16,35,23.60
2017,06,23,16,36,23.60
2017,06,23,16,37,23.60
2017,06,23,16,38,23.70
2017,06,23,16,39,23.70
2017,06,23,16,40,23.70
2017,06,23,16,41,23.80
2017,06,23,16,42,23.80
2017,06,23,16,43,23.80
2017,06,23,16,44,23.80
2017,06,23,16,45,23.70
2017,06,23,16,46,23.70
2017,06,23,16,47,23.70
2017,06,23,16,48,23.60
2017,06,23,16,49,23.60
2017,06,23,16,50,23.60
2017,06,23,16,51,23.60
2017,06,23,16,52,23.60
2017,06,23,16,53,23.70
2017,06,23,16,54,23.70
2017,06,23,16,55,23.70
2017,06,23,16,56,23.70
2017,06,23,16,57,23.70
2017,06,23,16,58,23.80
2017,06,23,16,59,23.70
2017,06,23,17,00,23.70
2017,06,23,17,01,23.60
2017,06,23,17,02,23.70
2017,06,23,17,03,23.70
2017,06,23,17,04,23.70
2017,06,23,17,05,23.70
2017,06,23,17,06,23.70
2017,06,23,17,07,23.70
2017,06,23,17,08,23.70
2017,06,23,17,09,23.80
2017,06,23,17,10,23.80
2017,06,23,17,11,23.90
2017,06,23,17,12,24.00
2017,06,23,17,13,24.10
2017,06,23,17,14,24.10
2017,06,23,17,15,24.10
2017,06,23,17,16,23.90
2017,06,23,17,17,24.00
2017,06,23,17,18,24.10
2017,06,23,17,19,24.10
2017,06,23,17,20,24.10
2017,06,23,17,21,24.20